,,,PA_Meas_PMT16A,,PR_Meas_QMR101_102,,RH_Meas_QMH101,,SR_Meas_QMS101,,TA_Meas_QMH101,,GenWind,,GenWind,
date,time,status,PA,status,PR,status,RH,status,SR,status,TA,status,DirAvg,status,SpdAvg,
2010-01-07, 00:00:04,VALID,1001.3,VALID,0,VALID,92.8754,VALID,0,VALID,23.0946,VALID,229,VALID,0,
2010-01-07, 00:01:04,VALID,1001.29,VALID,0,VALID,92.9211,VALID,0,VALID,23.1354,VALID,229,VALID,0,
2010-01-07, 00:02:04,VALID,1001.31,VALID,0,VALID,92.9288,VALID,0,VALID,23.0946,VALID,229,VALID,0,
2010-01-07, 00:03:04,VALID,1001.27,VALID,0,VALID,92.944,VALID,0,VALID,23.0964,VALID,229,VALID,0,
2010-01-07, 00:04:04,VALID,1001.24,VALID,0,VALID,92.9745,VALID,0,VALID,23.0751,VALID,229,VALID,0,
2010-01-07, 00:05:04,VALID,1001.21,VALID,0,VALID,92.9669,VALID,0,VALID,23.1159,VALID,229,VALID,0,
2010-01-07, 00:06:04,VALID,1001.24,VALID,0,VALID,92.9974,VALID,0,VALID,23.1159,VALID,229,VALID,0,
2010-01-07, 00:07:04,VALID,1001.2,VALID,0,VALID,93.0203,VALID,0,VALID,23.1354,VALID,230,VALID,0,
2010-01-07, 00:08:04,VALID,1001.22,VALID,0,VALID,93.0432,VALID,0,VALID,23.1141,VALID,230,VALID,0,
2010-01-07, 00:09:04,VALID,1001.2,VALID,0,VALID,93.0356,VALID,0,VALID,23.1354,VALID,234,VALID,0,
2010-01-07, 00:10:04,VALID,1001.17,VALID,0,VALID,93.0127,VALID,0,VALID,23.1354,VALID,260,VALID,0,
2010-01-07, 00:11:04,VALID,1001.14,VALID,0,VALID,92.9822,VALID,0,VALID,23.1354,VALID,277,VALID,0,
2010-01-07, 00:12:04,VALID,1001.15,VALID,0,VALID,92.9822,VALID,0,VALID,23.0946,VALID,283,VALID,0,
2010-01-07, 00:13:04,VALID,1001.11,VALID,0,VALID,93.0051,VALID,0,VALID,23.0751,VALID,283,VALID,0,
2010-01-07, 00:14:04,VALID,1001.11,VALID,0,VALID,93.0432,VALID,0,VALID,23.0964,VALID,283,VALID,0,
2010-01-07, 00:15:04,VALID,1001.09,VALID,0,VALID,93.0661,VALID,0,VALID,23.0751,VALID,283,VALID,0,
2010-01-07, 00:16:04,VALID,1001.08,VALID,0,VALID,93.089,VALID,0,VALID,23.0964,VALID,243,VALID,0,
2010-01-07, 00:17:04,VALID,1001.09,VALID,0,VALID,93.0966,VALID,0.112286,VALID,23.0964,VALID,240,VALID,0,
2010-01-07, 00:18:04,VALID,1001.07,VALID,0,VALID,93.1119,VALID,0,VALID,23.0556,VALID,226,VALID,0,
2010-01-07, 00:19:04,VALID,1001.05,VALID,0,VALID,93.1043,VALID,0,VALID,23.0769,VALID,226,VALID,0,
2010-01-07, 00:20:04,VALID,1001.06,VALID,0,VALID,93.1043,VALID,0,VALID,23.0573,VALID,226,VALID,0,
2010-01-07, 00:21:04,VALID,1001.01,VALID,0,VALID,93.0814,VALID,0,VALID,23.0769,VALID,226,VALID,0,
2010-01-07, 00:22:04,VALID,1001.02,VALID,0,VALID,93.0814,VALID,0,VALID,23.0769,VALID,226,VALID,0,
2010-01-07, 00:23:04,VALID,1001.03,VALID,0,VALID,93.1195,VALID,0,VALID,23.0556,VALID,226,VALID,0,
2010-01-07, 00:24:04,VALID,1001.02,VALID,0,VALID,93.1119,VALID,0,VALID,23.0769,VALID,226,VALID,0,
2010-01-07, 00:25:04,VALID,1000.99,VALID,0,VALID,93.0966,VALID,0,VALID,23.0573,VALID,226,VALID,0,
2010-01-07, 00:26:04,VALID,1000.98,VALID,0,VALID,93.0966,VALID,0,VALID,23.0573,VALID,226,VALID,0,
2010-01-07, 00:27:04,VALID,1000.97,VALID,0,VALID,93.1043,VALID,0,VALID,23.0361,VALID,226,VALID,0,
2010-01-07, 00:28:04,VALID,1000.98,VALID,0,VALID,93.1271,VALID,0,VALID,23.0378,VALID,226,VALID,0,
2010-01-07, 00:29:04,VALID,1000.95,VALID,0,VALID,93.1195,VALID,0,VALID,23.0378,VALID,226,VALID,0,
2010-01-07, 00:30:04,VALID,1000.95,VALID,0.5,VALID,93.1577,VALID,0,VALID,23.0166,VALID,226,VALID,0,
2010-01-07, 00:31:04,VALID,1000.95,VALID,0,VALID,93.1424,VALID,0,VALID,23.0378,VALID,140,VALID,0,
2010-01-07, 00:32:04,VALID,1000.93,VALID,0,VALID,93.1577,VALID,0,VALID,23.0183,VALID,116,VALID,0,
2010-01-07, 00:33:04,VALID,1000.94,VALID,0,VALID,93.1424,VALID,0,VALID,23.0183,VALID,116,VALID,0,
2010-01-07, 00:34:04,VALID,1000.91,VALID,0,VALID,93.1424,VALID,0,VALID,22.9988,VALID,116,VALID,0,
2010-01-07, 00:35:04,VALID,1000.88,VALID,0,VALID,93.1348,VALID,0,VALID,22.9776,VALID,234,VALID,0,
2010-01-07, 00:36:04,VALID,1000.87,VALID,0,VALID,92.9517,VALID,0,VALID,22.9793,VALID,239,VALID,0.755469,
2010-01-07, 00:37:04,VALID,1000.83,VALID,0,VALID,92.7991,VALID,0,VALID,23.0166,VALID,227,VALID,0.410937,
2010-01-07, 00:38:04,VALID,1000.83,VALID,0,VALID,92.7991,VALID,0,VALID,23.0361,VALID,294,VALID,0.272656,
2010-01-07, 00:39:04,VALID,1000.79,VALID,0,VALID,92.7685,VALID,0,VALID,23.0573,VALID,294,VALID,0,
2010-01-07, 00:40:04,VALID,1000.82,VALID,0,VALID,92.7533,VALID,0,VALID,23.0769,VALID,263,VALID,0.169922,
2010-01-07, 00:41:04,VALID,1000.79,VALID,0,VALID,92.7151,VALID,0,VALID,23.0573,VALID,193,VALID,0.637109,
2010-01-07, 00:42:04,VALID,1000.74,VALID,0,VALID,92.738,VALID,0,VALID,23.0361,VALID,199,VALID,0,
2010-01-07, 00:43:04,VALID,1000.76,VALID,0,VALID,92.7075,VALID,0,VALID,23.0591,VALID,199,VALID,0,
2010-01-07, 00:44:04,VALID,1000.72,VALID,0,VALID,92.677,VALID,0,VALID,23.0378,VALID,199,VALID,0,
2010-01-07, 00:45:04,VALID,1000.7,VALID,0,VALID,92.677,VALID,0,VALID,23.0183,VALID,89,VALID,0.224219,
2010-01-07, 00:46:04,VALID,1000.67,VALID,0,VALID,92.616,VALID,0,VALID,23.0183,VALID,89,VALID,0,
2010-01-07, 00:47:04,VALID,1000.66,VALID,0,VALID,92.5931,VALID,0,VALID,23.0183,VALID,89,VALID,0,
2010-01-07, 00:48:04,VALID,1000.63,VALID,0,VALID,92.5702,VALID,0,VALID,23.0396,VALID,89,VALID,0,
2010-01-07, 00:49:04,VALID,1000.65,VALID,0,VALID,92.6541,VALID,0,VALID,23.0786,VALID,57,VALID,0,
2010-01-07, 00:50:04,VALID,1000.6,VALID,0,VALID,92.6846,VALID,0,VALID,23.0769,VALID,46,VALID,0.734375,
2010-01-07, 00:51:04,VALID,1000.6,VALID,0,VALID,92.7533,VALID,0,VALID,23.0981,VALID,45,VALID,0.457812,
2010-01-07, 00:52:04,VALID,1000.57,VALID,0,VALID,92.7914,VALID,0,VALID,23.0981,VALID,44,VALID,0,
2010-01-07, 00:53:04,VALID,1000.56,VALID,0,VALID,92.8067,VALID,0,VALID,23.0786,VALID,1,VALID,0,
2010-01-07, 00:54:04,VALID,1000.56,VALID,0,VALID,92.8296,VALID,0,VALID,23.0786,VALID,352,VALID,0,
2010-01-07, 00:55:04,VALID,1000.53,VALID,0,VALID,92.8754,VALID,0,VALID,23.0573,VALID,352,VALID,0,
2010-01-07, 00:56:04,VALID,1000.53,VALID,0,VALID,92.9211,VALID,0,VALID,23.0769,VALID,352,VALID,0,
2010-01-07, 00:57:04,VALID,1000.48,VALID,0,VALID,92.9059,VALID,0,VALID,23.0591,VALID,352,VALID,0,
2010-01-07, 00:58:04,VALID,1000.44,VALID,0,VALID,92.9593,VALID,0.112286,VALID,23.0361,VALID,352,VALID,0,
2010-01-07, 00:59:04,VALID,1000.47,VALID,0,VALID,92.944,VALID,0.112286,VALID,23.0573,VALID,352,VALID,0,
2010-01-07, 01:00:04,VALID,1000.44,VALID,0,VALID,92.9745,VALID,0,VALID,23.0378,VALID,352,VALID,0,
2010-01-07, 01:01:04,VALID,1000.4,VALID,0,VALID,92.9974,VALID,0.112286,VALID,23.0378,VALID,352,VALID,0,
2010-01-07, 01:02:04,VALID,1000.38,VALID,0,VALID,93.0203,VALID,0,VALID,23.0166,VALID,352,VALID,0,
2010-01-07, 01:03:04,VALID,1000.34,VALID,0,VALID,93.0508,VALID,0,VALID,23.0166,VALID,352,VALID,0,
2010-01-07, 01:04:04,VALID,1000.31,VALID,0,VALID,93.0814,VALID,0.112286,VALID,23.0378,VALID,352,VALID,0,
2010-01-07, 01:05:04,VALID,1000.24,VALID,0,VALID,93.0814,VALID,0,VALID,23.0166,VALID,344,VALID,0,
2010-01-07, 01:06:04,VALID,1000.29,VALID,0,VALID,93.1653,VALID,0,VALID,23.0361,VALID,303,VALID,0.684375,
2010-01-07, 01:07:04,VALID,1000.21,VALID,0,VALID,93.15,VALID,0,VALID,23.0769,VALID,325,VALID,0.310547,
2010-01-07, 01:08:04,VALID,1000.2,VALID,0,VALID,93.1882,VALID,0,VALID,23.0573,VALID,325,VALID,0.1375,
2010-01-07, 01:09:04,VALID,1000.17,VALID,0,VALID,93.1653,VALID,0,VALID,23.0378,VALID,311,VALID,0.490625,
2010-01-07, 01:10:04,VALID,1000.15,VALID,0,VALID,93.1577,VALID,0.112286,VALID,23.0183,VALID,274,VALID,0.546094,
2010-01-07, 01:11:04,VALID,1000.14,VALID,0,VALID,93.1805,VALID,0,VALID,23.0183,VALID,274,VALID,0.549609,
2010-01-07, 01:12:04,VALID,1000.12,VALID,0,VALID,93.1882,VALID,0,VALID,22.9971,VALID,274,VALID,0.241406,
2010-01-07, 01:13:04,VALID,1000.09,VALID,0,VALID,93.2034,VALID,0,VALID,23.0183,VALID,235,VALID,0.179297,
2010-01-07, 01:14:04,VALID,1000.04,VALID,0,VALID,93.1577,VALID,0,VALID,23.0183,VALID,234,VALID,0.741797,
2010-01-07, 01:15:04,VALID,1000.04,VALID,0,VALID,93.0508,VALID,0,VALID,23.0396,VALID,246,VALID,0.959375,
2010-01-07, 01:16:04,VALID,1000.01,VALID,0,VALID,92.9745,VALID,0,VALID,23.0786,VALID,295,VALID,0.654688,
2010-01-07, 01:17:04,VALID,999.959,VALID,0,VALID,92.9211,VALID,0,VALID,23.0786,VALID,278,VALID,0.694141,
2010-01-07, 01:18:04,VALID,999.949,VALID,0,VALID,92.738,VALID,0,VALID,23.0378,VALID,251,VALID,0.548828,
2010-01-07, 01:19:04,VALID,999.917,VALID,0,VALID,92.6846,VALID,0,VALID,23.0981,VALID,251,VALID,0.587891,
2010-01-07, 01:20:04,VALID,999.88,VALID,0,VALID,92.41,VALID,0,VALID,23.0769,VALID,271,VALID,0.489844,
2010-01-07, 01:21:04,VALID,999.876,VALID,0,VALID,92.2345,VALID,0,VALID,23.1176,VALID,256,VALID,0.465625,
2010-01-07, 01:22:04,VALID,999.827,VALID,0,VALID,92.1277,VALID,0,VALID,23.1371,VALID,252,VALID,0.453906,
2010-01-07, 01:23:04,VALID,999.844,VALID,0,VALID,92.1277,VALID,0,VALID,23.1566,VALID,279,VALID,0.745313,
2010-01-07, 01:24:04,VALID,999.794,VALID,0,VALID,92.059,VALID,0,VALID,23.1371,VALID,254,VALID,0.534375,
2010-01-07, 01:25:04,VALID,999.759,VALID,0,VALID,92.1048,VALID,0,VALID,23.1354,VALID,209,VALID,0.733984,
2010-01-07, 01:26:04,VALID,999.762,VALID,0,VALID,91.9827,VALID,0,VALID,23.1159,VALID,204,VALID,0.748438,
2010-01-07, 01:27:04,VALID,999.728,VALID,0,VALID,91.998,VALID,0,VALID,23.1159,VALID,204,VALID,0.413281,
2010-01-07, 01:28:04,VALID,999.717,VALID,0,VALID,92.0437,VALID,0,VALID,23.1336,VALID,204,VALID,0.448828,
2010-01-07, 01:29:04,VALID,999.718,VALID,0,VALID,92.0819,VALID,0,VALID,23.1744,VALID,202,VALID,0.475,
2010-01-07, 01:30:04,VALID,999.7,VALID,0,VALID,92.0056,VALID,0,VALID,23.1744,VALID,210,VALID,0.607422,
2010-01-07, 01:31:04,VALID,999.667,VALID,0,VALID,91.9293,VALID,0,VALID,23.1939,VALID,244,VALID,0.684766,
2010-01-07, 01:32:04,VALID,999.666,VALID,0,VALID,91.8835,VALID,0,VALID,23.2134,VALID,269,VALID,0.582422,
2010-01-07, 01:33:04,VALID,999.65,VALID,0,VALID,91.8988,VALID,0,VALID,23.2134,VALID,275,VALID,0.536328,
2010-01-07, 01:34:04,VALID,999.646,VALID,0,VALID,91.7462,VALID,0.112286,VALID,23.2134,VALID,271,VALID,0,
2010-01-07, 01:35:04,VALID,999.59,VALID,0,VALID,91.7538,VALID,0.112286,VALID,23.1726,VALID,265,VALID,0,
2010-01-07, 01:36:04,VALID,999.579,VALID,0,VALID,91.792,VALID,0,VALID,23.2134,VALID,265,VALID,0,
2010-01-07, 01:37:04,VALID,999.578,VALID,0,VALID,91.853,VALID,0,VALID,23.1939,VALID,265,VALID,0,
2010-01-07, 01:38:04,VALID,999.578,VALID,0,VALID,92.0209,VALID,0,VALID,23.1921,VALID,262,VALID,0,
2010-01-07, 01:39:04,VALID,999.585,VALID,0,VALID,92.0743,VALID,0,VALID,23.1921,VALID,262,VALID,0,
2010-01-07, 01:40:04,VALID,999.541,VALID,0,VALID,91.9674,VALID,0.112286,VALID,23.1744,VALID,262,VALID,0,
2010-01-07, 01:41:04,VALID,999.548,VALID,0,VALID,91.8911,VALID,0,VALID,23.1336,VALID,262,VALID,0,
2010-01-07, 01:42:04,VALID,999.497,VALID,0,VALID,91.9369,VALID,0,VALID,23.1336,VALID,262,VALID,0,
2010-01-07, 01:43:04,VALID,999.521,VALID,0,VALID,91.998,VALID,0,VALID,23.1354,VALID,262,VALID,0,
2010-01-07, 01:44:04,VALID,999.497,VALID,0,VALID,92.0895,VALID,0,VALID,23.1159,VALID,258,VALID,0,
2010-01-07, 01:45:04,VALID,999.474,VALID,0,VALID,92.0895,VALID,0,VALID,23.1159,VALID,248,VALID,0,
2010-01-07, 01:46:04,VALID,999.468,VALID,0,VALID,92.059,VALID,0,VALID,23.1354,VALID,242,VALID,0,
2010-01-07, 01:47:04,VALID,999.464,VALID,0,VALID,91.9827,VALID,0,VALID,23.0946,VALID,229,VALID,0,
2010-01-07, 01:48:04,VALID,999.447,VALID,0,VALID,92.0285,VALID,0,VALID,23.1159,VALID,224,VALID,0,
2010-01-07, 01:49:04,VALID,999.446,VALID,0,VALID,92.0666,VALID,0,VALID,23.1159,VALID,214,VALID,0,
2010-01-07, 01:50:04,VALID,999.461,VALID,0,VALID,92.0819,VALID,0,VALID,23.0946,VALID,215,VALID,0,
2010-01-07, 01:51:04,VALID,999.461,VALID,0,VALID,92.0056,VALID,0,VALID,23.0751,VALID,219,VALID,0,
2010-01-07, 01:52:04,VALID,999.443,VALID,0,VALID,91.9751,VALID,0,VALID,23.1159,VALID,219,VALID,0,
2010-01-07, 01:53:04,VALID,999.416,VALID,0,VALID,91.853,VALID,0,VALID,23.1159,VALID,216,VALID,0,
2010-01-07, 01:54:04,VALID,999.449,VALID,0,VALID,91.8911,VALID,0.112286,VALID,23.1354,VALID,221,VALID,0,
2010-01-07, 01:55:04,VALID,999.434,VALID,0,VALID,91.8148,VALID,0,VALID,23.1354,VALID,222,VALID,0,
2010-01-07, 01:56:04,VALID,999.432,VALID,0,VALID,91.8606,VALID,0,VALID,23.1141,VALID,222,VALID,0,
2010-01-07, 01:57:04,VALID,999.444,VALID,0,VALID,91.914,VALID,0,VALID,23.1354,VALID,222,VALID,0,
2010-01-07, 01:58:04,VALID,999.435,VALID,0,VALID,91.9522,VALID,0,VALID,23.1159,VALID,222,VALID,0,
2010-01-07, 01:59:04,VALID,999.442,VALID,0,VALID,91.9751,VALID,0,VALID,23.1159,VALID,222,VALID,0,
2010-01-07, 02:00:04,VALID,999.452,VALID,0,VALID,92.0743,VALID,0,VALID,23.0964,VALID,222,VALID,0,
2010-01-07, 02:01:04,VALID,999.398,VALID,0,VALID,92.1277,VALID,0,VALID,23.0964,VALID,222,VALID,0,
2010-01-07, 02:02:04,VALID,999.395,VALID,0,VALID,92.1734,VALID,0,VALID,23.0573,VALID,221,VALID,0,
2010-01-07, 02:03:04,VALID,999.385,VALID,0,VALID,92.2268,VALID,0,VALID,23.0573,VALID,222,VALID,0,
2010-01-07, 02:04:04,VALID,999.345,VALID,0,VALID,92.2803,VALID,0,VALID,23.0378,VALID,223,VALID,0,
2010-01-07, 02:05:04,VALID,999.401,VALID,0,VALID,92.3566,VALID,0,VALID,23.0378,VALID,208,VALID,0,
2010-01-07, 02:06:04,VALID,999.371,VALID,0,VALID,92.4252,VALID,0,VALID,23.0183,VALID,208,VALID,0,
2010-01-07, 02:07:04,VALID,999.359,VALID,0,VALID,92.4405,VALID,0.112286,VALID,22.9971,VALID,214,VALID,0.414063,
2010-01-07, 02:08:04,VALID,999.362,VALID,0,VALID,92.4023,VALID,0,VALID,23.0183,VALID,216,VALID,0.65625,
2010-01-07, 02:09:04,VALID,999.344,VALID,0,VALID,92.4634,VALID,0,VALID,23.0166,VALID,216,VALID,0.461328,
2010-01-07, 02:10:04,VALID,999.294,VALID,0,VALID,92.3718,VALID,0,VALID,22.9971,VALID,219,VALID,0.716016,
2010-01-07, 02:11:04,VALID,999.326,VALID,0,VALID,92.326,VALID,0,VALID,22.9971,VALID,229,VALID,0.539453,
2010-01-07, 02:12:04,VALID,999.317,VALID,0,VALID,92.2879,VALID,0,VALID,23.0378,VALID,225,VALID,0.414844,
2010-01-07, 02:13:04,VALID,999.303,VALID,0,VALID,92.2574,VALID,0,VALID,23.0166,VALID,223,VALID,0.4,
2010-01-07, 02:14:04,VALID,999.286,VALID,0,VALID,92.2803,VALID,0,VALID,23.0166,VALID,227,VALID,0.682422,
2010-01-07, 02:15:04,VALID,999.277,VALID,0,VALID,92.2879,VALID,0,VALID,23.0166,VALID,216,VALID,0.356641,
2010-01-07, 02:16:04,VALID,999.284,VALID,0,VALID,92.2879,VALID,0,VALID,23.0166,VALID,216,VALID,0.244531,
2010-01-07, 02:17:04,VALID,999.27,VALID,0,VALID,92.326,VALID,0,VALID,23.0378,VALID,216,VALID,0,
2010-01-07, 02:18:04,VALID,999.301,VALID,0,VALID,92.3718,VALID,0,VALID,23.0378,VALID,216,VALID,0,
2010-01-07, 02:19:04,VALID,999.286,VALID,0,VALID,92.3642,VALID,0,VALID,23.0573,VALID,216,VALID,0,
2010-01-07, 02:20:04,VALID,999.288,VALID,0,VALID,92.3947,VALID,0,VALID,23.0166,VALID,216,VALID,0,
2010-01-07, 02:21:04,VALID,999.269,VALID,0,VALID,92.4176,VALID,0,VALID,23.0183,VALID,216,VALID,0,
2010-01-07, 02:22:04,VALID,999.278,VALID,0,VALID,92.4481,VALID,0.112286,VALID,22.9971,VALID,216,VALID,0,
2010-01-07, 02:23:04,VALID,999.272,VALID,0,VALID,92.5244,VALID,0.112286,VALID,23.0183,VALID,216,VALID,0,
2010-01-07, 02:24:04,VALID,999.252,VALID,0,VALID,92.5702,VALID,0,VALID,22.9971,VALID,216,VALID,0,
2010-01-07, 02:25:04,VALID,999.251,VALID,0,VALID,92.5397,VALID,0,VALID,22.9776,VALID,216,VALID,0,
2010-01-07, 02:26:04,VALID,999.256,VALID,0,VALID,92.5244,VALID,0,VALID,22.9793,VALID,211,VALID,0.838672,
2010-01-07, 02:27:04,VALID,999.228,VALID,0,VALID,92.5549,VALID,0.112286,VALID,22.9581,VALID,219,VALID,0.626562,
2010-01-07, 02:28:04,VALID,999.241,VALID,0,VALID,92.5168,VALID,0,VALID,22.9581,VALID,214,VALID,0.975,
2010-01-07, 02:29:04,VALID,999.265,VALID,0,VALID,92.4939,VALID,0,VALID,22.9598,VALID,215,VALID,0.885938,
2010-01-07, 02:30:04,VALID,999.208,VALID,0,VALID,92.5091,VALID,0,VALID,22.9793,VALID,225,VALID,0.797266,
2010-01-07, 02:31:04,VALID,999.231,VALID,0,VALID,92.4481,VALID,0,VALID,22.9598,VALID,219,VALID,0.71875,
2010-01-07, 02:32:04,VALID,999.222,VALID,0,VALID,92.3794,VALID,0,VALID,22.9598,VALID,215,VALID,0.787891,
2010-01-07, 02:33:04,VALID,999.261,VALID,0,VALID,92.4023,VALID,0,VALID,22.9793,VALID,219,VALID,0.638672,
2010-01-07, 02:34:04,VALID,999.233,VALID,0,VALID,92.3871,VALID,0,VALID,22.9581,VALID,244,VALID,0.788281,
2010-01-07, 02:35:04,VALID,999.2,VALID,0,VALID,92.3718,VALID,0,VALID,22.9793,VALID,221,VALID,0.558984,
2010-01-07, 02:36:04,VALID,999.166,VALID,0,VALID,92.3566,VALID,0,VALID,22.9581,VALID,223,VALID,0.819922,
2010-01-07, 02:37:04,VALID,999.177,VALID,0,VALID,92.3566,VALID,0,VALID,22.9793,VALID,234,VALID,0.216016,
2010-01-07, 02:38:04,VALID,999.193,VALID,0,VALID,92.3947,VALID,0,VALID,22.9793,VALID,228,VALID,0,
2010-01-07, 02:39:04,VALID,999.169,VALID,0,VALID,92.3413,VALID,0.112286,VALID,22.9581,VALID,223,VALID,0,
2010-01-07, 02:40:04,VALID,999.177,VALID,0,VALID,92.326,VALID,0,VALID,22.9385,VALID,231,VALID,0,
2010-01-07, 02:41:04,VALID,999.173,VALID,0,VALID,92.3031,VALID,0,VALID,22.9385,VALID,228,VALID,0,
2010-01-07, 02:42:04,VALID,999.164,VALID,0,VALID,92.2726,VALID,0.112286,VALID,22.9598,VALID,228,VALID,0,
2010-01-07, 02:43:04,VALID,999.159,VALID,0,VALID,92.3031,VALID,0,VALID,22.9581,VALID,228,VALID,0,
2010-01-07, 02:44:04,VALID,999.154,VALID,0,VALID,92.2955,VALID,0,VALID,22.9793,VALID,228,VALID,0,
2010-01-07, 02:45:04,VALID,999.13,VALID,0,VALID,92.326,VALID,0,VALID,22.9581,VALID,228,VALID,0,
2010-01-07, 02:46:04,VALID,999.104,VALID,0,VALID,92.3337,VALID,0,VALID,22.9598,VALID,228,VALID,0,
2010-01-07, 02:47:04,VALID,999.112,VALID,0,VALID,92.3489,VALID,0.112286,VALID,22.9385,VALID,228,VALID,0,
2010-01-07, 02:48:04,VALID,999.079,VALID,0,VALID,92.3642,VALID,0,VALID,22.9598,VALID,228,VALID,0,
2010-01-07, 02:49:04,VALID,999.087,VALID,0,VALID,92.3642,VALID,0.112286,VALID,22.9385,VALID,228,VALID,0,
2010-01-07, 02:50:04,VALID,999.106,VALID,0,VALID,92.3642,VALID,0,VALID,22.919,VALID,228,VALID,0,
2010-01-07, 02:51:04,VALID,999.062,VALID,0,VALID,92.3871,VALID,0.112286,VALID,22.8995,VALID,228,VALID,0,
2010-01-07, 02:52:04,VALID,999.059,VALID,0,VALID,92.41,VALID,0,VALID,22.88,VALID,228,VALID,0,
2010-01-07, 02:53:04,VALID,999.05,VALID,0,VALID,92.4481,VALID,0,VALID,22.9013,VALID,228,VALID,0,
2010-01-07, 02:54:04,VALID,999.093,VALID,0,VALID,92.5473,VALID,0,VALID,22.9013,VALID,228,VALID,0,
2010-01-07, 02:55:04,VALID,999.068,VALID,0,VALID,92.5854,VALID,0,VALID,22.8605,VALID,228,VALID,0,
2010-01-07, 02:56:04,VALID,999.056,VALID,0,VALID,92.616,VALID,0,VALID,22.841,VALID,262,VALID,0.448438,
2010-01-07, 02:57:04,VALID,999.079,VALID,0,VALID,92.6388,VALID,0.112286,VALID,22.8605,VALID,263,VALID,0,
2010-01-07, 02:58:04,VALID,999.097,VALID,0,VALID,92.677,VALID,0,VALID,22.8427,VALID,263,VALID,0,
2010-01-07, 02:59:04,VALID,999.087,VALID,0,VALID,92.6617,VALID,0,VALID,22.8427,VALID,263,VALID,0,
2010-01-07, 03:00:04,VALID,999.09,VALID,0,VALID,92.6541,VALID,0,VALID,22.864,VALID,263,VALID,0,
2010-01-07, 03:01:04,VALID,999.076,VALID,0,VALID,92.6694,VALID,0,VALID,22.8232,VALID,263,VALID,0,
2010-01-07, 03:02:04,VALID,999.087,VALID,0,VALID,92.677,VALID,0,VALID,22.8232,VALID,263,VALID,0,
2010-01-07, 03:03:04,VALID,999.072,VALID,0,VALID,92.677,VALID,0,VALID,22.8445,VALID,263,VALID,0,
2010-01-07, 03:04:04,VALID,999.071,VALID,0,VALID,92.6999,VALID,0,VALID,22.825,VALID,263,VALID,0,
2010-01-07, 03:05:04,VALID,999.073,VALID,0,VALID,92.6999,VALID,0,VALID,22.7842,VALID,263,VALID,0,
2010-01-07, 03:06:04,VALID,999.082,VALID,0,VALID,92.7151,VALID,0,VALID,22.7647,VALID,263,VALID,0,
2010-01-07, 03:07:04,VALID,999.106,VALID,0,VALID,92.7762,VALID,0,VALID,22.7647,VALID,263,VALID,0,
2010-01-07, 03:08:04,VALID,999.101,VALID,0,VALID,92.822,VALID,0,VALID,22.7647,VALID,263,VALID,0,
2010-01-07, 03:09:04,VALID,999.121,VALID,0,VALID,92.8677,VALID,0,VALID,22.7647,VALID,263,VALID,0,
2010-01-07, 03:10:04,VALID,999.148,VALID,0,VALID,92.8983,VALID,0,VALID,22.7647,VALID,263,VALID,0,
2010-01-07, 03:11:04,VALID,999.177,VALID,0,VALID,92.9364,VALID,0,VALID,22.7647,VALID,263,VALID,0,
2010-01-07, 03:12:04,VALID,999.183,VALID,0,VALID,92.9593,VALID,0,VALID,22.7452,VALID,263,VALID,0,
2010-01-07, 03:13:04,VALID,999.197,VALID,0,VALID,92.9135,VALID,0,VALID,22.7435,VALID,263,VALID,0,
2010-01-07, 03:14:04,VALID,999.227,VALID,0,VALID,92.9135,VALID,0,VALID,22.7435,VALID,263,VALID,0,
2010-01-07, 03:15:04,VALID,999.218,VALID,0,VALID,92.944,VALID,0,VALID,22.763,VALID,263,VALID,0,
2010-01-07, 03:16:04,VALID,999.215,VALID,0,VALID,92.9898,VALID,0.112286,VALID,22.7842,VALID,263,VALID,0,
2010-01-07, 03:17:04,VALID,999.211,VALID,0,VALID,93.0203,VALID,0,VALID,22.7825,VALID,104,VALID,0,
2010-01-07, 03:18:04,VALID,999.219,VALID,0,VALID,93.0814,VALID,0.112286,VALID,22.802,VALID,104,VALID,0,
2010-01-07, 03:19:04,VALID,999.232,VALID,0,VALID,93.089,VALID,0,VALID,22.8232,VALID,101,VALID,0,
2010-01-07, 03:20:04,VALID,999.228,VALID,0,VALID,93.1119,VALID,0,VALID,22.802,VALID,101,VALID,0,
2010-01-07, 03:21:04,VALID,999.255,VALID,0,VALID,93.1119,VALID,0,VALID,22.802,VALID,101,VALID,0,
2010-01-07, 03:22:04,VALID,999.216,VALID,0,VALID,93.1043,VALID,0,VALID,22.802,VALID,98,VALID,0,
2010-01-07, 03:23:04,VALID,999.232,VALID,0,VALID,93.1195,VALID,0,VALID,22.7825,VALID,95,VALID,0,
2010-01-07, 03:24:04,VALID,999.259,VALID,0,VALID,93.1271,VALID,0,VALID,22.763,VALID,95,VALID,0,
2010-01-07, 03:25:04,VALID,999.234,VALID,0,VALID,93.1271,VALID,0.112286,VALID,22.763,VALID,95,VALID,0,
2010-01-07, 03:26:04,VALID,999.255,VALID,0,VALID,93.1653,VALID,0,VALID,22.763,VALID,95,VALID,0,
2010-01-07, 03:27:04,VALID,999.28,VALID,0,VALID,93.1958,VALID,0,VALID,22.7435,VALID,95,VALID,0,
2010-01-07, 03:28:04,VALID,999.296,VALID,0,VALID,93.2416,VALID,0,VALID,22.763,VALID,95,VALID,0,
2010-01-07, 03:29:04,VALID,999.273,VALID,0,VALID,93.2568,VALID,0,VALID,22.7647,VALID,95,VALID,0,
2010-01-07, 03:30:04,VALID,999.3,VALID,0,VALID,93.234,VALID,0,VALID,22.7647,VALID,91,VALID,0,
2010-01-07, 03:31:04,VALID,999.278,VALID,0,VALID,93.2645,VALID,0,VALID,22.724,VALID,85,VALID,0,
2010-01-07, 03:32:04,VALID,999.271,VALID,0,VALID,93.295,VALID,0,VALID,22.7435,VALID,83,VALID,0,
2010-01-07, 03:33:04,VALID,999.312,VALID,0,VALID,93.295,VALID,0,VALID,22.724,VALID,78,VALID,0,
2010-01-07, 03:34:04,VALID,999.299,VALID,0,VALID,93.3179,VALID,0,VALID,22.7452,VALID,76,VALID,0,
2010-01-07, 03:35:04,VALID,999.292,VALID,0,VALID,93.3179,VALID,0,VALID,22.7647,VALID,76,VALID,0,
2010-01-07, 03:36:04,VALID,999.299,VALID,0,VALID,93.3408,VALID,0,VALID,22.7452,VALID,76,VALID,0,
2010-01-07, 03:37:04,VALID,999.33,VALID,0,VALID,93.3713,VALID,0,VALID,22.7452,VALID,76,VALID,0,
2010-01-07, 03:38:04,VALID,999.328,VALID,0,VALID,93.356,VALID,0,VALID,22.724,VALID,77,VALID,0,
2010-01-07, 03:39:04,VALID,999.301,VALID,0,VALID,93.3789,VALID,0,VALID,22.7452,VALID,78,VALID,0,
2010-01-07, 03:40:04,VALID,999.305,VALID,0,VALID,93.3866,VALID,0,VALID,22.7257,VALID,78,VALID,0,
2010-01-07, 03:41:04,VALID,999.308,VALID,0,VALID,93.3866,VALID,0,VALID,22.7045,VALID,78,VALID,0,
2010-01-07, 03:42:04,VALID,999.32,VALID,0,VALID,93.4247,VALID,0,VALID,22.7045,VALID,78,VALID,0,
2010-01-07, 03:43:04,VALID,999.285,VALID,0,VALID,93.44,VALID,0,VALID,22.7452,VALID,84,VALID,0,
2010-01-07, 03:44:04,VALID,999.299,VALID,0,VALID,93.4552,VALID,0,VALID,22.7257,VALID,84,VALID,0,
2010-01-07, 03:45:04,VALID,999.326,VALID,0,VALID,93.4628,VALID,0,VALID,22.685,VALID,83,VALID,0,
2010-01-07, 03:46:04,VALID,999.314,VALID,0,VALID,93.4857,VALID,0,VALID,22.7045,VALID,85,VALID,0,
2010-01-07, 03:47:04,VALID,999.353,VALID,0,VALID,93.5086,VALID,0,VALID,22.7257,VALID,85,VALID,0,
2010-01-07, 03:48:04,VALID,999.334,VALID,0,VALID,93.5086,VALID,0,VALID,22.685,VALID,84,VALID,0,
2010-01-07, 03:49:04,VALID,999.342,VALID,0,VALID,93.5391,VALID,0,VALID,22.7257,VALID,85,VALID,0,
2010-01-07, 03:50:04,VALID,999.342,VALID,0,VALID,93.562,VALID,0,VALID,22.7257,VALID,84,VALID,0,
2010-01-07, 03:51:04,VALID,999.335,VALID,0,VALID,93.5544,VALID,0,VALID,22.7257,VALID,82,VALID,0,
2010-01-07, 03:52:04,VALID,999.346,VALID,0,VALID,93.5544,VALID,0,VALID,22.7257,VALID,81,VALID,0,
2010-01-07, 03:53:04,VALID,999.359,VALID,0,VALID,93.5391,VALID,0,VALID,22.7257,VALID,78,VALID,0,
2010-01-07, 03:54:04,VALID,999.34,VALID,0,VALID,93.5468,VALID,0.112286,VALID,22.7045,VALID,71,VALID,0,
2010-01-07, 03:55:04,VALID,999.319,VALID,0,VALID,93.5544,VALID,0,VALID,22.7062,VALID,71,VALID,0,